Location: *
(28.2408°N, 53.4600°E)
Time: 19:48:46
(UTC+00:00)

Cosmos 1420 Rocket - Pass Details

Date: 22 September 2019
Orbit: 754 x 781 km, 74.0° (Epoch: 20 October)

Event Time Altitude Azimuth Distance (km) Brightness Sun altitude
Rises 15:43:10 0° 187° (S) 3,229 7.2 -18.3°
Reaches altitude 10° 15:45:32 10° 184° (S) 2,309 6.4 -18.8°
Maximum altitude 15:50:44 65° 103° (ESE) 850 3.9 -20.0°
Drops below altitude 10° 15:55:59 10° 22° (NNE) 2,333 6.4 -21.1°
Sets 15:58:23 0° 20° (NNE) 3,266 7.2 -21.6°
